SCP
0 0 0 0 0 0 0 0 0 0 0 0 0 0 0 0 0 0 0 0 0 0 0 0 0 0 0 0 0 0 0 0 0 0 0 0 0 0 0 0 -0 -0 -0
0 0 0 0 0 0 0 0 0 0 0 0 0 0 0 0 0 0 0 0 -0 0 0 0 0 0 0 0 0 0 0 0 0 0 0 0 0 0 0 0 -0 -0 -0
0 0 0 0 0 0 0 0 0 0 0 0 0 0 0 0 0 0 0 0 0 0 0 0 0 0 0 0 0 0 0 0 0 0 0 0 0 0 0 -0 -0 -0 -0
0 0 0 0 0 0 0 0 0 0 0 0 0 0 0 0 0 0 0 0 0 0 0 0 0 0 0 0 0 0 0 0 0 0 0 0 0 0 0 -0 -0 -0 0
1 1 0 0 0 0 0 0 0 0 0 0 0 0 0 0 0 0 0 0 0 0 0 0 0 0 0 0 0 0 0 0 0 0 0 0 0 0 0 -0 -0 -0 0
1 1 0 0 0 0 0 0 0 0 0 0 0 0 0 0 0 0 0 0 0 0 0 0 0 0 0 0 0 0 0 0 0 0 0 0 0 0 0 0 -0 -0 0
1 0 0 0 0 0 0 0 0 0 0 0 0 0 0 0 0 0 0 0 0 0 0 0 0 0 0 0 0 0 0 0 0 0 0 0 0 0 0 0 -0 0 -0
0 0 0 0 0 0 0 0 0 0 0 0 0 0 0 0 0 0 0 0 0 0 0 0 0 0 0 0 0 0 0 0 0 0 0 0 0 0 0 0 0 0 0
0 0 0 0 0 0 0 0 0 0 0 0 0 0 0 0 0 0 0 0 0 0 0 0 0 0 0 0 0 0 0 0 0 0 0 0 0 0 0 -0 0 0 0
0 0 0 0 0 0 0 0 0 0 0 0 0 0 0 0 0 0 0 0 0 0 0 0 0 0 0 0 0 0 0 0 0 0 0 -0 0 0 0 0 0 0 -0
0 0 0 0 0 0 0 0 0 0 0 0 0 0 0 0 0 0 0 0 0 0 0 0 0 0 0 0 0 0 0 0 0 -0 0 0 0 0 0 0 0 0 0
0 0 0 0 0 0 0 0 0 0 0 0 0 0 0 0 0 0 0 0 0 0 0 0 0 0 0 0 0 0 0 0 0 0 -0 0 0 0 -0 -0 -0 -0 0
0 0 0 0 0 0 0 0 0 0 0 0 0 -0 0 0 0 0 0 0 0 0 0 0 0 0 0 0 0 0 0 -0 0 0 0 0 -0 0 -0 -0 0 0 0
0 0 0 0 0 0 0 0 0 0 0 -0 -0 -0 -0 0 0 0 0 0 0 0 0 0 0 0 0 0 0 -0 0 -0 -0 -0 0 0 0 0 0 0 0 0 -0
0 0 0 0 -0 0 0 0 0 0 0 -0 0 -0 0 0 0 0 -0 0 0 0 0 0 0 0 0 0 0 0 0 0 -0 0 0 0 -0 -0 0 -0 0 0 0
0 0 0 0 0 0 0 0 0 0 0 0 -0 0 -0 -0 0 0 0 0 0 0 0 0 0 0 0 0 0 0 0 0 -0 -0 -0 -0 -0 -0 0 0 0 0 0
0 0 -0 -0 0 0 0 0 0 0 0 0 0 0 -0 -0 0 0 0 0 0 0 0 0 0 0 0 0 0 0 0 0 0 -0 -0 -0 -0 -0 -0 0 0 0 0
-0 -0 -0 -0 -0 0 0 -0 0 0 0 -0 0 -0 -0 0 0 0 0 0 0 0 0 0 0 0 0 0 0 0 0 0 0 -0 0 0 -0 -0 0 0 0 0 0
0 0 -0 -0 -0 0 0 0 0 0 -0 -0 -0 -0 -0 -0 0 0 0 0 0 0 0 0 0 0 0 0 0 0 0 0 0 -0 -0 0 0 0 0 -0 -0 -0 0
0 0 -0 -0 -0 0 0 -0 0 0 -0 0 -0 -0 -0 -0 -0 0 0 0 0 0 0 0 0 0 0 0 0 0 0 0 0 0 0 0 0 -0 -0 -0 -0 -0 0
-0 0 -0 -0 -0 0 0 0 0 0 0 0 -0 -0 -0 -0 -0 -0 0 0 0 0 0 0 0 0 0 0 0 0 0 0 0 0 0 0 0 0 -0 -0 -0 -0 -0
0 0 -0 -0 -0 -0 0 -0 0 0 0 0 -0 -0 0 -0 -0 0 0 0 0 0 0 0 0 0 0 0 0 0 0 0 0 0 0 0 -0 -0 -0 0 0 -0 -0
0 0 0 -0 0 -0 0 -0 0 0 0 0 0 0 0 0 0 0 0 0 0 0 0 0 0 0 0 0 0 0 0 0 0 0 -0 -0 0 -0 0 -0 -0 -0 -0
-0 0 0 -0 -0 -0 0 0 -0 0 0 0 0 0 0 0 0 0 0 0 0 0 0 0 0 0 0 0 0 0 0 0 0 0 -0 0 0 -0 -0 -0 0 -0 0
0 0 0 0 -0 -0 0 0 0 0 0 0 0 0 0 0 0 0 0 0 0 0 0 0 0 0 0 0 0 0 -0 -0 0 0 0 0 -0 0 -0 -0 0 0 0
0 0 0 0 -0 -0 0 0 0 0 0 0 0 -0 -0 -0 0 0 0 0 0 0 0 0 0 0 0 0 -0 0 0 0 0 0 -0 -0 -0 0 -0 0 0 0 0
Wind_Speed_500mb
57 46 40 35 31 31 30 29 30 28 27 25 24 26 22 22 25 30 26 32 34 32 37 36 31 26 24 26 34 43 48 47 48 45 38 40 41 43 42 40 37 39 37
55 47 37 33 36 36 33 32 36 36 34 32 33 33 31 34 33 41 29 30 35 35 33 31 31 29 28 29 34 43 44 50 49 44 41 44 47 43 39 39 39 40 41
39 36 33 35 36 33 37 37 38 39 43 43 42 42 42 39 34 36 40 35 34 35 34 31 29 30 28 33 35 45 45 48 50 45 44 45 49 44 43 40 42 40 39
38 34 33 32 32 42 45 43 37 38 44 50 48 44 42 39 37 29 34 35 34 34 34 28 28 28 28 33 33 41 47 43 50 48 47 43 46 43 46 45 42 43 44
39 29 35 26 32 41 39 38 40 41 42 45 49 45 42 39 41 33 30 39 41 38 35 25 23 19 26 34 33 36 45 42 49 51 48 43 44 48 48 45 45 50 39
33 31 30 31 33 34 40 42 41 39 40 39 38 39 38 38 40 35 37 37 43 44 35 32 27 27 26 32 34 36 40 42 44 51 48 42 44 47 45 47 55 54 44
31 30 31 30 32 38 41 36 36 36 35 33 31 35 36 43 39 38 32 35 37 39 38 34 32 26 26 28 34 38 40 41 43 46 51 47 49 48 44 53 43 43 43
37 34 30 29 34 40 38 36 34 35 33 28 29 26 24 39 36 39 41 39 44 37 36 38 40 33 25 29 34 39 39 40 44 46 46 42 49 47 51 57 50 42 38
30 29 30 35 34 38 35 32 25 24 21 24 27 20 13 16 16 34 41 42 39 34 35 32 32 33 28 18 33 37 39 40 43 52 45 50 52 46 55 48 48 47 38
32 35 37 31 30 30 24 19 17 19 22 24 27 33 30 6 8 7 35 45 39 38 35 33 26 31 29 27 30 37 39 40 46 56 49 56 50 62 44 53 59 55 49
38 33 29 27 23 18 15 14 15 17 20 23 32 33 33 39 24 11 12 39 43 36 32 33 27 34 33 29 32 35 37 40 51 63 56 56 50 61 54 62 59 42 43
27 28 28 26 19 13 10 10 11 10 11 16 22 27 32 35 43 22 21 39 45 35 30 30 33 36 33 33 35 31 32 36 57 66 58 63 69 64 64 61 49 45 34
21 23 26 20 15 10 8 9 9 7 10 11 14 17 25 24 31 26 29 31 42 33 29 30 31 36 37 34 29 30 32 40 51 59 52 72 72 68 67 61 56 35 38
20 21 15 14 11 10 11 11 8 9 8 11 12 16 19 26 28 31 22 28 35 36 34 34 28 29 33 32 31 32 44 49 51 34 57 62 67 68 65 55 50 37 32
17 13 11 6 4 4 9 13 12 13 12 10 10 15 20 25 29 26 25 27 45 29 24 23 23 27 23 24 26 37 52 60 36 45 59 56 63 57 63 55 42 19 39
16 14 10 8 3 4 8 12 13 14 11 15 14 15 20 24 22 20 23 30 39 39 29 33 24 30 27 29 39 44 60 52 36 55 52 72 67 67 58 42 29 35 29
16 18 11 8 5 5 7 8 12 12 16 17 14 14 22 25 28 30 28 36 39 36 39 35 30 25 30 53 71 71 58 42 53 69 80 69 61 51 44 43 42 36 28
21 13 3 3 7 13 8 9 14 19 17 16 19 20 21 20 20 26 32 40 47 38 40 48 34 36 43 45 51 65 77 81 94 67 61 62 51 49 46 52 40 38 20
19 9 3 4 8 9 11 9 9 14 27 23 20 21 22 21 21 23 34 44 43 42 50 57 55 42 55 65 86 89 80 73 73 65 63 58 46 38 40 33 31 29 19
18 9 8 4 8 11 10 12 11 6 13 21 18 20 21 20 18 18 21 33 45 49 52 58 60 72 75 83 92 91 86 78 75 67 50 44 44 41 39 35 31 30 22
14 12 8 4 5 10 12 14 10 5 14 17 10 17 21 16 16 21 18 40 48 59 67 69 79 83 83 81 88 84 74 69 57 48 51 49 41 37 36 34 29 24 16
14 16 11 2 6 9 11 12 9 12 18 17 20 26 27 31 32 19 21 27 52 65 73 80 87 92 87 91 83 77 79 69 56 52 55 43 37 36 31 28 24 18 17
18 15 13 7 8 10 11 9 7 12 18 21 19 23 27 25 22 26 29 50 55 65 64 72 92 94 96 83 75 72 63 60 66 60 52 45 36 30 28 25 21 22 21
19 20 15 10 10 12 5 6 11 17 20 17 17 22 22 24 24 34 48 59 57 61 64 76 93 88 77 65 66 63 63 60 58 52 39 42 38 30 26 26 25 25 21
25 23 20 15 12 6 1 8 13 20 19 21 21 24 26 28 39 47 57 57 70 73 69 72 77 62 67 65 54 59 58 60 57 50 45 28 36 33 28 26 26 25 23
25 24 21 14 9 8 9 12 14 21 22 27 30 27 27 37 44 50 54 60 62 71 64 69 62 54 52 47 50 52 57 54 53 45 42 26 33 31 22 27 29 30 28
Wind_Direction_500mb
243 244 253 253 260 261 255 277 279 267 262 268 252 244 262 261 258 256 243 216 229 229 228 224 224 239 243 235 223 217 211 212 209 217 218 212 211 214 209 214 203 197 189
247 244 245 252 253 258 258 271 281 266 263 263 259 251 256 263 263 257 268 225 237 231 232 232 235 244 248 240 227 219 218 210 212 217 222 214 208 213 214 205 202 199 190
232 225 239 244 252 254 264 264 271 262 259 265 265 257 255 259 251 251 252 243 235 230 238 244 236 245 242 234 224 221 219 214 213 216 224 222 210 219 201 202 203 193 183
220 226 239 250 255 255 261 268 269 256 260 259 260 259 258 245 242 241 243 236 220 221 238 236 240 249 231 229 227 222 221 216 207 214 218 217 220 209 200 202 196 186 184
211 223 235 252 265 258 262 273 270 269 268 260 257 255 253 244 234 236 243 232 226 228 234 223 231 250 234 227 223 223 219 218 209 208 219 212 227 212 200 200 200 184 165
210 231 235 260 276 258 272 275 277 275 273 261 256 252 241 231 227 235 244 238 229 224 223 224 232 241 251 235 223 216 219 214 210 209 213 215 213 199 201 199 190 168 174
221 220 237 270 266 271 281 285 283 276 267 257 249 242 238 228 233 232 239 227 226 228 229 232 232 240 248 239 228 214 213 213 210 205 211 217 200 199 201 196 174 172 166
210 224 264 270 273 278 279 281 271 267 262 247 238 239 237 234 226 233 243 235 222 225 225 222 233 242 251 230 224 213 211 212 211 204 214 201 194 197 191 177 161 158 163
226 252 256 268 279 277 276 273 263 254 254 238 228 214 202 216 219 239 236 227 219 208 213 222 219 233 239 246 223 216 212 213 212 202 206 209 196 199 176 171 176 154 166
236 248 259 268 281 276 268 260 254 244 237 223 223 227 231 195 197 230 222 221 212 214 213 220 226 231 232 237 219 220 221 214 208 200 208 197 195 188 176 159 163 175 164
237 254 266 271 275 267 259 263 257 251 246 239 233 234 233 234 241 235 220 206 207 217 222 227 229 236 235 227 231 219 220 216 204 201 200 195 199 185 176 168 164 172 177
237 261 269 268 254 256 267 268 253 244 248 246 239 233 227 224 220 228 217 203 207 213 219 215 222 228 240 229 228 221 217 210 205 207 194 194 184 193 175 174 176 169 165
252 263 264 242 239 256 253 227 222 213 224 222 227 224 216 214 216 239 214 196 197 200 204 222 229 229 225 231 208 208 207 203 195 181 186 179 179 177 175 173 169 164 153
258 262 223 214 238 248 244 230 227 222 243 234 230 209 209 210 207 221 202 197 181 188 205 222 217 219 221 223 221 200 197 182 160 174 185 183 174 168 168 175 173 166 150
240 186 183 197 192 229 243 252 247 236 228 223 221 219 217 213 213 219 220 207 194 166 179 200 210 204 208 203 197 178 180 176 173 186 185 193 178 169 168 163 162 157 154
165 154 135 128 142 288 286 265 262 253 239 210 219 209 192 202 208 210 213 203 208 204 166 183 186 182 189 193 192 172 172 171 186 184 184 176 165 167 167 166 152 152 172
152 138 126 115 21 351 303 276 238 225 206 209 215 219 195 193 201 213 212 202 199 207 186 168 179 176 179 189 183 171 172 171 175 176 165 160 167 164 162 151 148 162 160
153 148 141 302 325 321 317 301 249 232 210 212 211 213 207 213 214 210 201 198 199 201 187 164 165 170 179 184 180 171 170 169 159 157 160 161 157 160 162 155 160 160 147
156 186 196 282 314 328 317 317 312 216 217 216 218 213 215 204 206 210 199 200 198 182 178 159 159 159 162 165 147 156 150 144 144 145 150 155 156 161 161 161 167 179 181
168 192 198 239 303 330 346 344 336 198 191 191 188 202 194 196 205 195 193 166 170 169 167 157 159 154 152 149 149 143 144 142 146 153 151 152 138 135 135 138 147 160 170
175 180 206 236 313 348 357 10 15 93 160 176 194 179 176 180 167 122 159 169 167 158 157 158 151 152 149 147 145 145 142 147 145 143 142 142 142 145 151 158 159 161 175
185 205 212 301 329 2 11 29 46 111 134 131 125 134 139 148 151 146 163 162 171 163 156 154 155 152 152 155 152 154 151 152 146 156 145 143 153 155 157 159 167 178 180
188 208 211 248 310 336 2 39 85 116 140 142 141 145 140 142 146 145 175 174 176 167 163 163 158 158 158 159 160 157 156 158 155 156 155 156 160 165 171 176 182 187 188
200 214 224 243 296 313 347 49 117 122 129 127 135 141 140 140 145 147 161 166 165 167 166 167 165 160 158 159 163 163 161 158 152 156 166 160 167 176 186 192 197 196 203
213 220 230 252 281 266 161 115 141 143 130 124 134 137 135 121 135 145 152 155 159 160 159 157 156 157 163 163 169 168 163 161 161 168 177 186 177 180 194 205 211 211 219
219 227 231 233 249 203 165 145 144 150 138 131 130 136 132 130 132 138 143 146 145 152 156 162 160 156 159 165 173 174 168 171 166 171 182 193 193 185 202 219 219 220 228
Wind_Speed_850mb
57 46 40 35 31 31 30 29 30 28 27 25 24 26 22 22 25 30 26 32 34 32 37 36 31 26 24 26 34 43 48 47 48 45 38 40 41 43 42 40 37 39 37
55 47 37 33 36 36 33 32 36 36 34 32 33 33 31 34 33 41 29 30 35 35 33 31 31 29 28 29 34 43 44 50 49 44 41 44 47 43 39 39 39 40 41
39 36 33 35 36 33 37 37 38 39 43 43 42 42 42 39 34 36 40 35 34 35 34 31 29 30 28 33 35 45 45 48 50 45 44 45 49 44 43 40 42 40 39
38 34 33 32 32 42 45 43 37 38 44 50 48 44 42 39 37 29 34 35 34 34 34 28 28 28 28 33 33 41 47 43 50 48 47 43 46 43 46 45 42 43 44
39 29 35 26 32 41 39 38 40 41 42 45 49 45 42 39 41 33 30 39 41 38 35 25 23 19 26 34 33 36 45 42 49 51 48 43 44 48 48 45 45 50 39
33 31 30 31 33 34 40 42 41 39 40 39 38 39 38 38 40 35 37 37 43 44 35 32 27 27 26 32 34 36 40 42 44 51 48 42 44 47 45 47 55 54 44
31 30 31 30 32 38 41 36 36 36 35 33 31 35 36 43 39 38 32 35 37 39 38 34 32 26 26 28 34 38 40 41 43 46 51 47 49 48 44 53 43 43 43
37 34 30 29 34 40 38 36 34 35 33 28 29 26 24 39 36 39 41 39 44 37 36 38 40 33 25 29 34 39 39 40 44 46 46 42 49 47 51 57 50 42 38
30 29 30 35 34 38 35 32 25 24 21 24 27 20 13 16 16 34 41 42 39 34 35 32 32 33 28 18 33 37 39 40 43 52 45 50 52 46 55 48 48 47 38
32 35 37 31 30 30 24 19 17 19 22 24 27 33 30 6 8 7 35 45 39 38 35 33 26 31 29 27 30 37 39 40 46 56 49 56 50 62 44 53 59 55 49
38 33 29 27 23 18 15 14 15 17 20 23 32 33 33 39 24 11 12 39 43 36 32 33 27 34 33 29 32 35 37 40 51 63 56 56 50 61 54 62 59 42 43
27 28 28 26 19 13 10 10 11 10 11 16 22 27 32 35 43 22 21 39 45 35 30 30 33 36 33 33 35 31 32 36 57 66 58 63 69 64 64 61 49 45 34
21 23 26 20 15 10 8 9 9 7 10 11 14 17 25 24 31 26 29 31 42 33 29 30 31 36 37 34 29 30 32 40 51 59 52 72 72 68 67 61 56 35 38
20 21 15 14 11 10 11 11 8 9 8 11 12 16 19 26 28 31 22 28 35 36 34 34 28 29 33 32 31 32 44 49 51 34 57 62 67 68 65 55 50 37 32
17 13 11 6 4 4 9 13 12 13 12 10 10 15 20 25 29 26 25 27 45 29 24 23 23 27 23 24 26 37 52 60 36 45 59 56 63 57 63 55 42 19 39
16 14 10 8 3 4 8 12 13 14 11 15 14 15 20 24 22 20 23 30 39 39 29 33 24 30 27 29 39 44 60 52 36 55 52 72 67 67 58 42 29 35 29
16 18 11 8 5 5 7 8 12 12 16 17 14 14 22 25 28 30 28 36 39 36 39 35 30 25 30 53 71 71 58 42 53 69 80 69 61 51 44 43 42 36 28
21 13 3 3 7 13 8 9 14 19 17 16 19 20 21 20 20 26 32 40 47 38 40 48 34 36 43 45 51 65 77 81 94 67 61 62 51 49 46 52 40 38 20
19 9 3 4 8 9 11 9 9 14 27 23 20 21 22 21 21 23 34 44 43 42 50 57 55 42 55 65 86 89 80 73 73 65 63 58 46 38 40 33 31 29 19
18 9 8 4 8 11 10 12 11 6 13 21 18 20 21 20 18 18 21 33 45 49 52 58 60 72 75 83 92 91 86 78 75 67 50 44 44 41 39 35 31 30 22
14 12 8 4 5 10 12 14 10 5 14 17 10 17 21 16 16 21 18 40 48 59 67 69 79 83 83 81 88 84 74 69 57 48 51 49 41 37 36 34 29 24 16
14 16 11 2 6 9 11 12 9 12 18 17 20 26 27 31 32 19 21 27 52 65 73 80 87 92 87 91 83 77 79 69 56 52 55 43 37 36 31 28 24 18 17
18 15 13 7 8 10 11 9 7 12 18 21 19 23 27 25 22 26 29 50 55 65 64 72 92 94 96 83 75 72 63 60 66 60 52 45 36 30 28 25 21 22 21
19 20 15 10 10 12 5 6 11 17 20 17 17 22 22 24 24 34 48 59 57 61 64 76 93 88 77 65 66 63 63 60 58 52 39 42 38 30 26 26 25 25 21
25 23 20 15 12 6 1 8 13 20 19 21 21 24 26 28 39 47 57 57 70 73 69 72 77 62 67 65 54 59 58 60 57 50 45 28 36 33 28 26 26 25 23
25 24 21 14 9 8 9 12 14 21 22 27 30 27 27 37 44 50 54 60 62 71 64 69 62 54 52 47 50 52 57 54 53 45 42 26 33 31 22 27 29 30 28
Wind_Direction_850mb
243 244 253 253 260 261 255 277 279 267 262 268 252 244 262 261 258 256 243 216 229 229 228 224 224 239 243 235 223 217 211 212 209 217 218 212 211 214 209 214 203 197 189
247 244 245 252 253 258 258 271 281 266 263 263 259 251 256 263 263 257 268 225 237 231 232 232 235 244 248 240 227 219 218 210 212 217 222 214 208 213 214 205 202 199 190
232 225 239 244 252 254 264 264 271 262 259 265 265 257 255 259 251 251 252 243 235 230 238 244 236 245 242 234 224 221 219 214 213 216 224 222 210 219 201 202 203 193 183
220 226 239 250 255 255 261 268 269 256 260 259 260 259 258 245 242 241 243 236 220 221 238 236 240 249 231 229 227 222 221 216 207 214 218 217 220 209 200 202 196 186 184
211 223 235 252 265 258 262 273 270 269 268 260 257 255 253 244 234 236 243 232 226 228 234 223 231 250 234 227 223 223 219 218 209 208 219 212 227 212 200 200 200 184 165
210 231 235 260 276 258 272 275 277 275 273 261 256 252 241 231 227 235 244 238 229 224 223 224 232 241 251 235 223 216 219 214 210 209 213 215 213 199 201 199 190 168 174
221 220 237 270 266 271 281 285 283 276 267 257 249 242 238 228 233 232 239 227 226 228 229 232 232 240 248 239 228 214 213 213 210 205 211 217 200 199 201 196 174 172 166
210 224 264 270 273 278 279 281 271 267 262 247 238 239 237 234 226 233 243 235 222 225 225 222 233 242 251 230 224 213 211 212 211 204 214 201 194 197 191 177 161 158 163
226 252 256 268 279 277 276 273 263 254 254 238 228 214 202 216 219 239 236 227 219 208 213 222 219 233 239 246 223 216 212 213 212 202 206 209 196 199 176 171 176 154 166
236 248 259 268 281 276 268 260 254 244 237 223 223 227 231 195 197 230 222 221 212 214 213 220 226 231 232 237 219 220 221 214 208 200 208 197 195 188 176 159 163 175 164
237 254 266 271 275 267 259 263 257 251 246 239 233 234 233 234 241 235 220 206 207 217 222 227 229 236 235 227 231 219 220 216 204 201 200 195 199 185 176 168 164 172 177
237 261 269 268 254 256 267 268 253 244 248 246 239 233 227 224 220 228 217 203 207 213 219 215 222 228 240 229 228 221 217 210 205 207 194 194 184 193 175 174 176 169 165
252 263 264 242 239 256 253 227 222 213 224 222 227 224 216 214 216 239 214 196 197 200 204 222 229 229 225 231 208 208 207 203 195 181 186 179 179 177 175 173 169 164 153
258 262 223 214 238 248 244 230 227 222 243 234 230 209 209 210 207 221 202 197 181 188 205 222 217 219 221 223 221 200 197 182 160 174 185 183 174 168 168 175 173 166 150
240 186 183 197 192 229 243 252 247 236 228 223 221 219 217 213 213 219 220 207 194 166 179 200 210 204 208 203 197 178 180 176 173 186 185 193 178 169 168 163 162 157 154
165 154 135 128 142 288 286 265 262 253 239 210 219 209 192 202 208 210 213 203 208 204 166 183 186 182 189 193 192 172 172 171 186 184 184 176 165 167 167 166 152 152 172
152 138 126 115 21 351 303 276 238 225 206 209 215 219 195 193 201 213 212 202 199 207 186 168 179 176 179 189 183 171 172 171 175 176 165 160 167 164 162 151 148 162 160
153 148 141 302 325 321 317 301 249 232 210 212 211 213 207 213 214 210 201 198 199 201 187 164 165 170 179 184 180 171 170 169 159 157 160 161 157 160 162 155 160 160 147
156 186 196 282 314 328 317 317 312 216 217 216 218 213 215 204 206 210 199 200 198 182 178 159 159 159 162 165 147 156 150 144 144 145 150 155 156 161 161 161 167 179 181
168 192 198 239 303 330 346 344 336 198 191 191 188 202 194 196 205 195 193 166 170 169 167 157 159 154 152 149 149 143 144 142 146 153 151 152 138 135 135 138 147 160 170
175 180 206 236 313 348 357 10 15 93 160 176 194 179 176 180 167 122 159 169 167 158 157 158 151 152 149 147 145 145 142 147 145 143 142 142 142 145 151 158 159 161 175
185 205 212 301 329 2 11 29 46 111 134 131 125 134 139 148 151 146 163 162 171 163 156 154 155 152 152 155 152 154 151 152 146 156 145 143 153 155 157 159 167 178 180
188 208 211 248 310 336 2 39 85 116 140 142 141 145 140 142 146 145 175 174 176 167 163 163 158 158 158 159 160 157 156 158 155 156 155 156 160 165 171 176 182 187 188
200 214 224 243 296 313 347 49 117 122 129 127 135 141 140 140 145 147 161 166 165 167 166 167 165 160 158 159 163 163 161 158 152 156 166 160 167 176 186 192 197 196 203
213 220 230 252 281 266 161 115 141 143 130 124 134 137 135 121 135 145 152 155 159 160 159 157 156 157 163 163 169 168 163 161 161 168 177 186 177 180 194 205 211 211 219
219 227 231 233 249 203 165 145 144 150 138 131 130 136 132 130 132 138 143 146 145 152 156 162 160 156 159 165 173 174 168 171 166 171 182 193 193 185 202 219 219 220 228